ICO G-1

导读

ICO G-1是由美国于北京时间2008年4月14日08:00发射的一颗通信卫星,隶属于ICO卫星系统,是该计划中重要的组成部分。ICO全球通信公司原本计划依靠它搭建中地球轨道卫星移动通信网络,为个人用户提供移动通信服务。 该卫星最终进入预定轨道运行,是美国商业中轨通信卫星布局中的关键节点,虽后续计划因发展调整有所变动,但其发射是美国私营航天通信领域探索的标志性实践之一。

基本信息
目录编号:
32763
目录名称:
ICO G-1
国际标识:
2008-016A
轨道中心:
EARTH
卫星名称:
ICO G-1
卫星全名:
--
卫星状态:
在轨 (已飞行6665 天)
发射日期:
2008-04-14 UTC
国别 :
美国 (US)
星等 :
--
轨道信息
数据来源 国际轨道数据 AOE轨道数据
星历时间 2026-07-13T20:21:39+0800
20小时前
查看轨道信息
2026-07-12T13:00:00+0800
2天前
查看轨道信息
半长轴 42165.457km 42164.448km
偏心率 0.0002414 0.0002177
轨道倾角 5.530° 5.531°
近地点辐角 63.738° 67.032°
升交点赤经 36.056° 36.065°
平近点角 284.153° 169.158°
近地点 35777.141km 35777.131km
远地点 35797.499km 35795.491km
周期 1436.134分钟 1436.082分钟
每日圈数 1.002692 1.002728
详细信息
使用方式:
暂无
2D轨道图
3D轨道图
轨道高度分析图
轨道倾角分析图
轨道综合分析图
查看轨道综合分析图